Time,TemperatureF,DewpointF,PressureIn,WindDirection,WindDirectionDegrees,WindSpeedMPH,WindSpeedGustMPH,Humidity,HourlyPrecipIn,Conditions,Clouds,dailyrainin,SoftwareType,DateUTC
2013-02-22 00:03:00,21.9,0.7,30.13,ENE,67,0.0,0.0,39,0.00,,,0.00,WUHU21623XXSP,2013-02-22 08:03:00,
2013-02-22 00:47:00,21.0,1.0,30.11,SE,135,0.0,0.0,41,0.00,,,0.00,WUHU21623XXSP,2013-02-22 08:47:00,
2013-02-22 01:02:00,21.0,1.5,30.11,NE,45,0.0,0.0,42,0.00,,,0.00,WUHU21623XXSP,2013-02-22 09:02:00,
2013-02-22 01:11:00,21.4,2.2,30.11,NNE,22,0.0,0.0,43,0.00,,,0.00,WUHU21623XXSP,2013-02-22 09:11:00,
2013-02-22 02:35:00,21.6,4.3,30.13,WSW,247,0.0,0.0,47,0.00,,,0.00,WUHU21623XXSP,2013-02-22 10:35:00,
2013-02-22 04:02:00,21.7,5.4,30.13,ESE,112,0.0,0.0,49,0.00,,,0.00,WUHU21623XXSP,2013-02-22 12:02:00,
2013-02-22 04:32:00,21.9,5.6,30.14,NE,45,0.0,0.0,49,0.00,,,0.00,WUHU21623XXSP,2013-02-22 12:32:00,
2013-02-22 04:52:00,21.7,5.4,30.13,South,180,0.0,0.0,49,0.00,,,0.00,WUHU21623XXSP,2013-02-22 12:52:00,
2013-02-22 04:57:00,21.7,5.4,30.13,South,180,0.0,0.0,49,0.00,,,0.00,WUHU21623XXSP,2013-02-22 12:57:00,
2013-02-22 05:22:00,21.0,4.7,30.15,ENE,67,0.0,0.0,49,0.00,,,0.00,WUHU21623XXSP,2013-02-22 13:22:00,
2013-02-22 06:00:00,19.9,4.2,30.16,NNW,337,0.0,0.0,50,0.00,,,0.00,WUHU21623XXSP,2013-02-22 14:00:00,
2013-02-22 06:05:00,19.9,4.2,30.16,NNW,337,0.0,0.0,50,0.00,,,0.00,WUHU21623XXSP,2013-02-22 14:05:00,
2013-02-22 07:34:00,18.5,4.1,30.19,SE,135,0.0,0.0,53,0.00,,,0.00,WUHU21623XXSP,2013-02-22 15:34:00,
2013-02-22 08:01:00,21.4,7.7,30.20,SSE,157,0.0,0.0,56,0.00,,,0.00,WUHU21623XXSP,2013-02-22 16:01:00,
2013-02-22 09:41:00,37.9,19.8,30.19,SSW,202,0.0,0.0,47,0.00,,,0.00,WUHU21623XXSP,2013-02-22 17:41:00,
2013-02-22 10:43:00,42.1,21.6,30.18,South,180,0.0,0.0,44,0.00,,,0.00,WUHU21623XXSP,2013-02-22 18:43:00,
2013-02-22 11:30:00,47.8,25.2,30.18,SE,135,1.3,1.3,41,0.00,,,0.00,WUHU21623XXSP,2013-02-22 19:30:00,
2013-02-22 12:17:00,53.8,26.6,30.16,SSE,157,2.2,2.2,35,0.00,,,0.00,WUHU21623XXSP,2013-02-22 20:17:00,
2013-02-22 13:04:00,56.5,26.8,30.12,SSW,202,3.1,3.1,31,0.00,,,0.00,WUHU21623XXSP,2013-02-22 21:04:00,
2013-02-22 13:30:00,57.4,26.2,30.12,SW,225,0.0,0.0,30,0.00,,,0.00,WUHU21623XXSP,2013-02-22 21:30:00,
2013-02-22 13:40:00,57.6,26.4,30.11,SE,135,0.9,0.9,29,0.00,,,0.00,WUHU21623XXSP,2013-02-22 21:40:00,
2013-02-22 15:32:00,55.2,21.5,30.09,ENE,67,0.0,0.0,27,0.00,,,0.00,WUHU21623XXSP,2013-02-22 23:32:00,
2013-02-22 15:40:00,55.2,21.5,30.08,SE,135,0.0,0.0,27,0.00,,,0.00,WUHU21623XXSP,2013-02-22 23:40:00,
2013-02-22 15:59:00,54.1,20.6,30.07,NNE,22,0.0,0.0,27,0.00,,,0.00,WUHU21623XXSP,2013-02-22 23:59:00,
2013-02-22 16:59:00,52.0,19.7,30.08,SW,225,0.0,0.0,28,0.00,,,0.00,WUHU21623XXSP,2013-02-23 00:59:00,
2013-02-22 17:19:00,51.1,20.7,30.09,SE,135,3.1,3.1,30,0.00,,,0.00,WUHU21623XXSP,2013-02-23 01:19:00,
2013-02-22 19:59:00,45.5,17.2,30.10,South,180,1.1,1.1,32,0.00,,,0.00,WUHU21623XXSP,2013-02-23 03:59:00,
2013-02-22 20:04:00,45.5,17.2,30.10,WSW,247,0.0,1.1,32,0.00,,,0.00,WUHU21623XXSP,2013-02-23 04:04:00,
2013-02-22 20:20:00,44.8,17.2,30.10,WSW,247,6.0,6.0,33,0.00,,,0.00,WUHU21623XXSP,2013-02-23 04:20:00,
2013-02-22 21:20:00,43.9,19.8,30.07,WNW,292,4.7,4.7,38,0.00,,,0.00,WUHU21623XXSP,2013-02-23 05:20:00,
2013-02-22 21:21:00,43.9,19.8,30.07,WNW,292,4.7,4.7,38,0.00,,,0.00,WUHU21623XXSP,2013-02-23 05:21:00,
2013-02-22 21:33:00,43.5,19.4,30.06,West,270,0.0,0.0,38,0.00,,,0.00,WUHU21623XXSP,2013-02-23 05:33:00,
2013-02-22 22:07:00,42.6,19.3,30.09,NE,45,2.0,2.0,39,0.00,,,0.00,WUHU21623XXSP,2013-02-23 06:07:00,
2013-02-22 22:51:00,42.6,19.3,30.07,NNW,337,2.7,2.7,39,0.00,,,0.00,WUHU21623XXSP,2013-02-23 06:51:00,
2013-02-22 23:20:00,43.0,19.6,30.06,SSE,157,0.0,0.0,39,0.00,,,0.00,WUHU21623XXSP,2013-02-23 07:20:00,
2013-02-22 23:46:00,44.1,20.4,30.06,SSW,202,0.0,0.0,39,0.00,,,0.00,WUHU21623XXSP,2013-02-23 07:46:00,
2013-02-22 23:58:00,44.2,20.1,30.06,SE,135,4.9,4.9,38,0.00,,,0.00,WUHU21623XXSP,2013-02-23 07:58:00,